Home > Weather > Cochabamba > Past weeks

Flag for Bolivia Past Weather in Cochabamba, Bolivia — Yesterday and Last 2 Weeks

Now
66 °F

Passing clouds.


Feels Like: 66 °F
Forecast: N/A
Wind: 18 mph from Northwest

Location: Cochabamba Airport

Current Time: Jun 25, 2016 at 5:31:26 PM

Latest Report: Jun 25, 2016 at 5:00 PM


Visibility: 6 mi

Pressure: 30.12 "Hg (22.26 "Hg at 2584m altitude)

Humidity: 24%

Dew Point: 28 °F

Location of CochabambaLocation

Past Weather in Cochabamba — Graph

°F

Cochabamba Temperature Yesterday

Maximum temperature yesterday: 79 °F (at 3:00 PM)
Minimum temperature yesterday: 39 °F (at 6:00 AM)
Average temperature yesterday: 58 °F

High & Low Weather Summary for the Past Weeks

 TemperatureHumidityPressure
High81 °F (Jun 10, 4:00 PM)76% (Jun 17, 6:00 AM)30.51 "Hg (Jun 17, 6:00 AM)
Low39 °F (Jun 19, 7:00 AM)2% (Jun 10, 4:00 PM)30.07 "Hg (Jun 24, 3:00 PM)
Average59 °F36%30.30 "Hg
* Reported Jun 10 4:00 PM — Jun 25 4:00 PM, Cochabamba, Weather by CustomWeather, © 2016

Note: Actual official high and low records may vary slightly from our data, if they occured in-between our weather recording intervals... More about our weather records

Advertising

Cochabamba Weather History for the Previous 24 Hours

Scroll right to see more
 ConditionsComfort  
Time TempWeatherWind HumidityBarometerVisibility
4:00 PM
Sat, Jun 25
68 °FPassing clouds.21 mph23%30.12 "Hg4 mi
3:00 PM70 °FPassing clouds.12 mph21%30.12 "Hg6 mi
2:00 PM68 °FScattered clouds.15 mph23%30.15 "HgN/A
1:00 PM70 °FScattered clouds.14 mph23%30.18 "HgN/A
12:00 PM70 °FScattered clouds.3 mph23%30.21 "Hg6 mi
11:00 AM66 °FScattered clouds.No wind24%30.24 "Hg6 mi
10:00 AM61 °FPartly sunny.No wind31%30.27 "Hg5 mi
9:00 AM52 °FPartly sunny.3 mph50%30.27 "Hg4 mi
8:00 AM45 °FPartly sunny.3 mph66%30.27 "Hg4 mi
7:00 AM45 °FPartly sunny.No wind61%30.24 "Hg4 mi
6:00 AM45 °FClear.No wind66%30.21 "Hg6 mi
5:00 AM46 °FClear.No wind57%30.18 "HgN/A
4:00 AM48 °FPassing clouds.No wind54%30.15 "HgN/A
3:00 AM48 °FPassing clouds.No wind58%30.18 "HgN/A
2:00 AM52 °FPassing clouds.No wind47%30.18 "HgN/A
1:00 AM54 °FPassing clouds.3 mph47%30.21 "HgN/A
12:00 AM59 °FClear.7 mph39%30.21 "HgN/A
11:00 PM
Fri, Jun 24
59 °FClear.3 mph39%30.18 "HgN/A
10:00 PM59 °FClear.5 mph39%30.18 "HgN/A
9:00 PM61 °FClear.3 mph36%30.15 "HgN/A
8:00 PM61 °FClear.3 mph39%30.09 "HgN/A
7:00 PM64 °FClear.8 mph32%30.09 "Hg6 mi
6:00 PM70 °FPassing clouds.3 mph25%30.09 "Hg5 mi
5:00 PM75 °FScattered clouds.9 mph11%30.07 "HgN/A
Weather by CustomWeather, © 2016

See weather overviewHow to use our weather pages